TimeCST,TemperatureF,Dew PointF,Humidity,Sea Level PressureIn,VisibilityMPH,Wind Direction,Wind SpeedMPH,Gust SpeedMPH,PrecipitationIn,Events,Conditions,WindDirDegrees,DateUTC
12:53 AM,21.0,5.0,50,30.38,10.0,North,9.2,-,N/A,,Mostly Cloudy,360,2013-01-22 06:53:00
1:53 AM,19.0,5.0,54,30.39,10.0,NNE,5.8,-,N/A,,Clear,20,2013-01-22 07:53:00
2:53 AM,18.0,5.0,57,30.39,10.0,NNE,6.9,-,N/A,,Clear,20,2013-01-22 08:53:00
3:53 AM,17.1,3.9,56,30.39,10.0,North,5.8,-,N/A,,Clear,10,2013-01-22 09:53:00
4:53 AM,18.0,1.9,50,30.40,10.0,NNE,8.1,-,N/A,,Scattered Clouds,30,2013-01-22 10:53:00
5:53 AM,18.0,3.0,52,30.43,10.0,North,6.9,-,N/A,,Clear,10,2013-01-22 11:53:00
6:53 AM,18.0,1.9,50,30.44,10.0,NNE,8.1,-,N/A,,Scattered Clouds,30,2013-01-22 12:53:00
7:53 AM,19.0,1.0,46,30.45,10.0,NE,6.9,-,N/A,,Partly Cloudy,40,2013-01-22 13:53:00
8:53 AM,19.0,-0.0,43,30.47,10.0,NNE,5.8,-,N/A,,Mostly Cloudy,20,2013-01-22 14:53:00
9:53 AM,19.9,-0.0,42,30.50,10.0,ENE,5.8,-,N/A,,Partly Cloudy,60,2013-01-22 15:53:00
10:53 AM,21.9,-0.0,38,30.48,10.0,NE,3.5,-,N/A,,Clear,40,2013-01-22 16:53:00
11:53 AM,24.1,-0.9,34,30.47,10.0,NE,4.6,-,N/A,,Clear,50,2013-01-22 17:53:00
12:53 PM,25.0,-2.0,31,30.43,10.0,ENE,3.5,-,N/A,,Clear,60,2013-01-22 18:53:00
1:53 PM,24.1,-0.9,34,30.43,10.0,Variable,3.5,-,N/A,,Partly Cloudy,0,2013-01-22 19:53:00
2:53 PM,25.0,-0.9,33,30.42,10.0,NNE,5.8,-,N/A,,Mostly Cloudy,20,2013-01-22 20:53:00
3:53 PM,25.0,-0.9,33,30.41,10.0,Calm,Calm,-,N/A,,Overcast,0,2013-01-22 21:53:00
4:53 PM,25.0,-0.0,34,30.41,10.0,Calm,Calm,-,N/A,,Overcast,0,2013-01-22 22:53:00
5:53 PM,24.1,1.0,37,30.41,10.0,NNE,3.5,-,N/A,,Overcast,20,2013-01-22 23:53:00
6:53 PM,24.1,-0.0,35,30.40,10.0,NNE,3.5,-,N/A,,Overcast,30,2013-01-23 00:53:00
7:53 PM,24.1,1.0,37,30.39,10.0,Calm,Calm,-,N/A,,Overcast,0,2013-01-23 01:53:00
8:53 PM,25.0,3.0,39,30.40,10.0,Calm,Calm,-,N/A,,Overcast,0,2013-01-23 02:53:00
9:53 PM,25.0,3.9,41,30.40,10.0,East,4.6,-,N/A,,Overcast,80,2013-01-23 03:53:00
10:53 PM,23.0,5.0,46,30.40,10.0,Calm,Calm,-,N/A,,Partly Cloudy,0,2013-01-23 04:53:00
11:53 PM,21.9,8.1,55,30.40,10.0,Calm,Calm,-,N/A,,Clear,0,2013-01-23 05:53:00